Other Public Products
Issued by NWS Grand Forks, ND

Home | Current Version | Previous Version | Text Only | Print | Product List | Glossary On
Versions: 1 2 3 4 5 6 7 8 9 10 11 12 13 14 15 16 17 18 19 20 21 22 23 24 25 26 27 28 29 30 31 32 33 34 35 36 37 38 39 40 41 42 43 44 45 46 47 48 49 50
000
FPUS83 KFGF 271410
OPUFGF
PRAIRIE TO PINES WEATHER ROUNDUP
NATIONAL WEATHER SERVICE EASTERN NORTH DAKOTA/GRAND FORKS ND
900 AM CDT MON MAR 27 2017

 **SATELLITE DATA USED TO AUGMENT SKY COVER AT AUTOMATED STATIONS**
 *****  WEATHER ACROSS EASTERN NORTH DAKOTA  *****

CITY           SKY/WX    TMP DP  RH WIND       PRES   REMARKS
GRAND FORKS    FOG       37  37 100 NE3       29.99R VSB 1/4
GRAND FORKS AF FOG       36  36 100 CALM      29.99S VSB 1/4
GRAND CITY NWS NOT AVBL
BUXTON         NOT AVBL
DEVILS LAKE    MIX PCPN  30  30 100 SE8       29.94R VSB 1/4 WCI  22
FARGO          FOG       32  32 100 NE3       29.99R VSB<1/4
WAHPETON ARPT    N/A     34  32  93 CALM      29.99S
$$

 *****  WEATHER ACROSS CENTRAL AND WESTERN NORTH DAKOTA  *****

CITY           SKY/WX    TMP DP  RH WIND       PRES   REMARKS
JAMESTOWN      FOG       32  32 100 SE3       29.94S VSB 1/4
BISMARCK       FAIR      36  33  89 CALM      29.93S
MINOT          FAIR      38  35  89 W8        29.90R
MINOT AFB      FOG       30  28  93 NW7       29.90R VSB 1/4 WCI  23
GARRISON         N/A     34  31  88 CALM      29.90R
WILLISTON      FAIR      33  28  81 NE5       29.89S
DICKINSON      FAIR      33  30  88 SW6       29.87R
HETTINGER      FAIR      32  30  92 CALM      29.91R
$$

 *****  OTHER OBSERVATIONS NORTHEAST NORTH DAKOTA  *****

CITY           SKY/WX    TMP DP  RH WIND       PRES   REMARKS
WALHALLA       NOT AVBL
LANGDON        FOG       32  32 100 SE14      29.95R VSB<1/4 WCI  22
CAVALIER       FOG       32  32 100 SW6       29.99R VSB<1/4
GRAFTON        FOG       34  34 100 CALM      30.01F VSB<1/4
CANDO          NOT AVBL
FORT TOTTEN      N/A     38  38 100 SE7       29.95S
ROLLA          CLOUDY    32  34 100 SE3       29.92R FOG
RUGBY          NOT AVBL
 ***** THE ABOVE OBSERVATIONS ARE NON NWS ARE NOT QUALITY
        CONTROLLED AND MAY MIS-REPORT RAIN FOR SNOW...
$$

 *****  OTHER OBSERVATIONS SOUTHEAST NORTH DAKOTA *****

CITY           SKY/WX    TMP DP  RH WIND       PRES   REMARKS
COOPERSTOWN    FOG       32  32 100 E6        29.96S VSB<1/4
VALLEY CITY    FOG       32  32 100 CALM      29.98R VSB<1/4
OAKES          NOT AVBL
GWINNER        SUNNY     37  36  93 MISG      29.97R
SHEYENNE NWR     N/A     35  35 100 CALM      29.95S
BUFFALO        NOT AVBL
WYNDMERE       NOT AVBL
 ***** THE ABOVE OBSERVATIONS ARE NON NWS ARE NOT QUALITY
       CONTROLLED AND MAY MIS-REPORT RAIN FOR SNOW...
$$

  *****  WEATHER ACROSS NORTHERN MINNESOTA  *****

CITY           SKY/WX    TMP DP  RH WIND       PRES   REMARKS
FLAG ISLAND    FAIR      30  28  93 CALM      29.98R
WARROAD        FAIR      30  28  93 CALM      29.99S
ROSEAU         FAIR      32  27  80 CALM      29.98S HAZE
HALLOCK        FOG       30  28  93 S6        29.99F VSB<1/4 WCI  24
THF RVR FALLS  FOG       32  31  96 CALM      30.00  VSB<1/4
HALSTAD          N/A     33  32  98 CALM        N/A
FOSSTON        FOG       34  32  93 CALM      29.99R VSB 1/4
BAUDETTE       FOG       29  29 100 CALM      29.98R VSB<1/4
WASKISH        FOG       32  30  93 CALM      29.99R VSB 1/4
CROOKSTON      FOG       34  34 100 CALM      30.00S VSB 1/4
$$
  *****  WEATHER ACROSS CENTRAL AND WEST MINNESOTA  *****

CITY           SKY/WX    TMP DP  RH WIND       PRES   REMARKS
BEMIDJI        FAIR      33  33 100 CALM      29.97S FOG
PARK RAPIDS    FAIR      38  32  79 CALM      29.96R
WADENA         PTSUNNY   36  36 100 CALM      29.96S
DETROIT LAKES  FAIR      36  36 100 CALM      29.99R FOG
MOORHEAD       PTSUNNY   36  34  93 CALM      30.00R FOG
FERGUS FALLS   FAIR      37  37 100 CALM      30.02R
ELBOW LAKE     CLOUDY    35  35 100 CALM      29.98S FOG
MORRIS MN      CLOUDY    36  36 100 CALM      29.96S FOG
STAPLES        CLOUDY    36  34  93 CALM      29.97R
WHEATON        PTSUNNY   36  34  93 CALM      30.00R
$$
  *****  WEATHER ELSEWHERE ACROSS MINNESOTA  *****

CITY           SKY/WX    TMP DP  RH WIND       PRES   REMARKS
DULUTH         CLOUDY    36  33  89 N8        29.94R
INTRNTL FALLS  FAIR      34  30  85 CALM      29.98R
ELY            FAIR      34  30  86 CALM      29.95S
CLOQUET        FAIR      34  32  93 NW6       29.95R
BRAINERD       CLOUDY    37  33  85 CALM      29.97R
HIBBING        FAIR      35  32  88 CALM      29.96R
ALEXANDRIA     CLOUDY    38  37  97 CALM      29.98R
SAINT CLOUD    CLOUDY    40  38  93 CALM      29.96F
MINNEAPOLIS    PTSUNNY   40  34  79 N7        29.97S
$$

  *****  WEATHER ACROSS SOUTH DAKOTA  *****

CITY           SKY/WX    TMP DP  RH WIND       PRES   REMARKS
SIOUX FALLS    CLOUDY    43  39  86 CALM      29.98R
BROOKINGS      CLOUDY    35  34  96 MISG      29.96R FOG
WATERTOWN      CLOUDY    38  36  92 CALM      29.95S
HURON          CLOUDY    39  38  96 S5        29.97R
SISSETON         N/A     38  37  97 CALM      29.97R
ABERDEEN       FAIR      37  34  89 SE7       29.96S
MITCHELL       CLOUDY    34  34 100 SW5       29.99R FOG
PIERRE         CLOUDY    40  39  97 CALM      29.93S
MOBRIDGE       FAIR      35  31  85 S6        29.91S FOG
RAPID CITY     FOG       28  27  96 CALM      29.89R VSB 1/4
$$

  *****  SOME WEATHER IN NEARBY STATES *****

CITY           SKY/WX    TMP DP  RH WIND       PRES   REMARKS
GLASGOW MT     CLOUDY    41  29  62 E8        29.85S
GREAT FALLS MT FAIR      36  30  79 SW9       29.81R
CHEYENNE WY    FOG       33  32  96 SW9       29.93R VSB 1/4
SCOTTSBLUFF NE FAIR      32  30  92 E5        29.91S
OMAHA NE       CLOUDY    45  39  79 NW5       29.96R
DES MOINES IA  CLOUDY    44  40  85 NE5       29.93S
DAVENPORT IA   CLOUDY    47  45  93 NE5       29.93S
CHICAGO IL     DRIZZLE   48  45  89 NE7       29.93R
EAU CLAIRE WI  CLOUDY    38  35  89 N5        29.94S
LA CROSSE WI   FOG       42  41  96 NW3       29.94S VSB 1
$$

  *****  SOME NATIONAL WEATHER *****

CITY           SKY/WX    TMP DP  RH WIND       PRES   REMARKS
LA GUARDIA NY  LGT RAIN  41  39  93 NE7       30.10F FOG
RALEIGH NC     PTSUNNY   62  59  90 S8        30.15S
ATLANTA GA     PTSUNNY   64  62  93 SW6       30.12F
NEW ORLEANS LA PTSUNNY   74  70  87 S12       30.00S
OKLAHOMA CITY  CLOUDY    52  47  83 N20       29.92R
ALBUQUERQUE NM FAIR      42  27  55 W5        30.02R
SALT LAKE CITY MOCLDY    46  38  73 S6        29.88R
LOS ANGELES CA MOCLDY    54  51  90 E6        30.01S
BOISE ID       CLOUDY    42  40  92 CALM      29.94R
SEATTLE WA     CLOUDY    44  42  93 S8        29.97R
$$

*** WEATHER ACROSS MANITOBA...SASKATCHEWAN AND ONTARIO ***
                ***ONTARIO***

CITY           SKY/WX    TMP DP  RH WIND       PRES   REMARKS
GERALDTON      PTSUNNY   32  27  80 N5        29.91R
THUNDER BAY    PTSUNNY   34  34 100 SW5       29.95S
SIOUX LOOKOUT  PTSUNNY   32  28  86 CALM      29.98R
TORONTO        FOG       46  45  93 S6        29.86F VSB 1/4
BIG TROUT LK   CLOUDY    23  18  80 N8        30.00R WCI  14
PICKLE LAKE    MOSUNNY   27  23  86 VRB2      29.98S
DRYDEN         MOSUNNY   32  30  93 N5        29.98R
KENORA         PTSUNNY   34  30  86 E6        29.98R
$$
                *** MANITOBA***

CITY           SKY/WX    TMP DP  RH WIND       PRES   REMARKS
BRANDON        CLOUDY    34  32  93 E14       29.96S WCI  24
DAUPHIN        CLOUDY    32  28  86 E8        30.04R WCI  25
ISLAND LAKE    NOT AVBL
PILOT MOUND      N/A     34  32  93 SE8         N/A
THE PAS        CLOUDY    23  18  80 E6        30.12S WCI  16
THOMPSON       MOSUNNY   12   9  85 NE7       30.17R WCI   2
WINNIPEG       PTSUNNY   32  28  86 NE7       30.00S
LYNN LAKE      LGT SNOW  12  10  92 E6        30.17R WCI   3
CHURCHILL      FLURRIES   5   1  85 N13       30.21R WCI -12
GILLAM         LGT SNOW  10   7  85 NW7       30.14R WCI   0
$$
                ***SASKATCHEWAN***

CITY           SKY/WX    TMP DP  RH WIND       PRES   REMARKS
ESTEVAN        CLOUDY    30  28  93 NE3       29.91S
KINDERSLEY     FOG       28  28 100 E12G18    29.88R VSB 1/4 WCI  18
LLOYDMINSTER   FOG       27  27 100 SE14      29.88S VSB 1/2 WCI  15
PRINCE ALBERT  MOSUNNY   21  19  93 E9        30.04S WCI  11
REGINA         FOG       28  28 100 VRB2      29.93R VSB 1/4
YORKTON        FOG       32  32 100 E7        29.98R VS



USA.gov is the U.S. government's official web portal to all federal, state and local government web resources and services.